<?xml version="1.0" encoding="UTF-8" standalone="no" ?>
<gpx xmlns="http://www.topografix.com/GPX/1/1" xmlns:xsi="http://www.w3.org/2001/XMLSchema-instance" xsi:schemaLocation="http://www.topografix.com/GPX/1/1 http://www.topografix.com/GPX/1/1/gpx.xsd" version="1.1" creator="VisuGPX - https://www.visugpx.com">
  <metadata>
    <name>Ornans - parcours 27 - La brème</name>
    <desc><![CDATA[Parcours dans la vallée de la Loue.]]></desc>
  </metadata>
  <trk>
    <name><![CDATA[ORNANS27]]></name>
    <trkseg>
      <trkpt lat="47.10645" lon="6.14673">
        <ele>328</ele>
        <time>2007-04-09T00:00:00Z</time>
      </trkpt>
      <trkpt lat="47.10704" lon="6.14506">
        <ele>328</ele>
        <time>2007-04-09T00:00:00Z</time>
      </trkpt>
      <trkpt lat="47.10707" lon="6.14433">
        <ele>331</ele>
        <time>2007-04-09T00:00:00Z</time>
      </trkpt>
      <trkpt lat="47.10677" lon="6.14351">
        <ele>331</ele>
        <time>2007-04-09T00:00:00Z</time>
      </trkpt>
      <trkpt lat="47.10675" lon="6.14174">
        <ele>332</ele>
        <time>2007-04-09T00:00:00Z</time>
      </trkpt>
      <trkpt lat="47.10666" lon="6.14028">
        <ele>334</ele>
        <time>2007-04-09T00:00:00Z</time>
      </trkpt>
      <trkpt lat="47.10639" lon="6.13881">
        <ele>334</ele>
        <time>2007-04-09T00:00:00Z</time>
      </trkpt>
      <trkpt lat="47.10676" lon="6.13732">
        <ele>341</ele>
        <time>2007-04-09T00:00:00Z</time>
      </trkpt>
      <trkpt lat="47.10669" lon="6.13666">
        <ele>347</ele>
        <time>2007-04-09T00:00:00Z</time>
      </trkpt>
      <trkpt lat="47.10595" lon="6.13463">
        <ele>348</ele>
        <time>2007-04-09T00:00:00Z</time>
      </trkpt>
      <trkpt lat="47.1048" lon="6.13243">
        <ele>343</ele>
        <time>2007-04-09T00:00:00Z</time>
      </trkpt>
      <trkpt lat="47.10478" lon="6.13164">
        <ele>351</ele>
        <time>2007-04-09T00:00:00Z</time>
      </trkpt>
      <trkpt lat="47.10499" lon="6.13086">
        <ele>354</ele>
        <time>2007-04-09T00:00:00Z</time>
      </trkpt>
      <trkpt lat="47.10933" lon="6.12599">
        <ele>346</ele>
        <time>2007-04-09T00:00:00Z</time>
      </trkpt>
      <trkpt lat="47.10907" lon="6.1253">
        <ele>342</ele>
        <time>2007-04-09T00:00:00Z</time>
      </trkpt>
      <trkpt lat="47.10988" lon="6.12455">
        <ele>342</ele>
        <time>2007-04-09T00:00:00Z</time>
      </trkpt>
      <trkpt lat="47.11101" lon="6.12232">
        <ele>345</ele>
        <time>2007-04-09T00:00:00Z</time>
      </trkpt>
      <trkpt lat="47.11166" lon="6.11895">
        <ele>340</ele>
        <time>1969-12-31T00:00:00Z</time>
      </trkpt>
      <trkpt lat="47.1119" lon="6.1179">
        <ele>343</ele>
        <time>2007-04-09T00:00:00Z</time>
      </trkpt>
      <trkpt lat="47.11239" lon="6.11681">
        <ele>344</ele>
        <time>2007-04-09T00:00:00Z</time>
      </trkpt>
      <trkpt lat="47.11359" lon="6.11577">
        <ele>330</ele>
        <time>2007-04-09T00:00:00Z</time>
      </trkpt>
      <trkpt lat="47.11491" lon="6.11572">
        <ele>347</ele>
        <time>2007-04-09T00:00:00Z</time>
      </trkpt>
      <trkpt lat="47.11648" lon="6.117">
        <ele>350</ele>
        <time>2007-04-09T00:00:00Z</time>
      </trkpt>
      <trkpt lat="47.11815" lon="6.11821">
        <ele>357</ele>
        <time>2007-04-09T00:00:00Z</time>
      </trkpt>
      <trkpt lat="47.11956" lon="6.11916">
        <ele>355</ele>
        <time>2007-04-09T00:00:00Z</time>
      </trkpt>
      <trkpt lat="47.12085" lon="6.12097">
        <ele>363</ele>
        <time>2007-04-09T00:00:00Z</time>
      </trkpt>
      <trkpt lat="47.12214" lon="6.12152">
        <ele>366</ele>
        <time>2007-04-09T00:00:00Z</time>
      </trkpt>
      <trkpt lat="47.12349" lon="6.12168">
        <ele>375</ele>
        <time>2007-04-09T00:00:00Z</time>
      </trkpt>
      <trkpt lat="47.1248" lon="6.12277">
        <ele>381</ele>
        <time>2007-04-09T00:00:00Z</time>
      </trkpt>
      <trkpt lat="47.12603" lon="6.12384">
        <ele>378</ele>
        <time>2007-04-09T00:00:00Z</time>
      </trkpt>
      <trkpt lat="47.1275" lon="6.12421">
        <ele>387</ele>
        <time>2007-04-09T00:00:00Z</time>
      </trkpt>
      <trkpt lat="47.12856" lon="6.12494">
        <ele>388</ele>
        <time>2007-04-09T00:00:00Z</time>
      </trkpt>
      <trkpt lat="47.12913" lon="6.12545">
        <ele>392</ele>
        <time>2007-04-09T00:00:00Z</time>
      </trkpt>
      <trkpt lat="47.12989" lon="6.12682">
        <ele>396</ele>
        <time>2007-04-09T00:00:00Z</time>
      </trkpt>
      <trkpt lat="47.13145" lon="6.12858">
        <ele>404</ele>
        <time>2007-04-09T00:00:00Z</time>
      </trkpt>
      <trkpt lat="47.13265" lon="6.12923">
        <ele>399</ele>
        <time>2007-04-09T00:00:00Z</time>
      </trkpt>
      <trkpt lat="47.13355" lon="6.12969">
        <ele>408</ele>
        <time>2007-04-09T00:00:00Z</time>
      </trkpt>
      <trkpt lat="47.13472" lon="6.13198">
        <ele>414</ele>
        <time>2007-04-09T00:00:00Z</time>
      </trkpt>
      <trkpt lat="47.1358" lon="6.13469">
        <ele>417</ele>
        <time>2007-04-09T00:00:00Z</time>
      </trkpt>
      <trkpt lat="47.13645" lon="6.13824">
        <ele>425</ele>
        <time>2007-04-09T00:00:00Z</time>
      </trkpt>
      <trkpt lat="47.13688" lon="6.14031">
        <ele>422</ele>
        <time>2007-04-09T00:00:00Z</time>
      </trkpt>
      <trkpt lat="47.13701" lon="6.14184">
        <ele>435</ele>
        <time>2007-04-09T00:00:00Z</time>
      </trkpt>
      <trkpt lat="47.1362" lon="6.14442">
        <ele>435</ele>
        <time>2007-04-09T00:00:00Z</time>
      </trkpt>
      <trkpt lat="47.1361" lon="6.14613">
        <ele>434</ele>
        <time>2007-04-09T00:00:00Z</time>
      </trkpt>
      <trkpt lat="47.13595" lon="6.14804">
        <ele>452</ele>
        <time>2007-04-09T00:00:00Z</time>
      </trkpt>
      <trkpt lat="47.13573" lon="6.14914">
        <ele>467</ele>
        <time>2007-04-09T00:00:00Z</time>
      </trkpt>
      <trkpt lat="47.13601" lon="6.15015">
        <ele>460</ele>
        <time>2007-04-09T00:00:00Z</time>
      </trkpt>
      <trkpt lat="47.1364" lon="6.15071">
        <ele>460</ele>
        <time>2007-04-09T00:00:00Z</time>
      </trkpt>
      <trkpt lat="47.13727" lon="6.15295">
        <ele>450</ele>
        <time>2007-04-09T00:00:00Z</time>
      </trkpt>
      <trkpt lat="47.13812" lon="6.15571">
        <ele>463</ele>
        <time>2007-04-09T00:00:00Z</time>
      </trkpt>
      <trkpt lat="47.13868" lon="6.15661">
        <ele>462</ele>
        <time>2007-04-09T00:00:00Z</time>
      </trkpt>
      <trkpt lat="47.13971" lon="6.15794">
        <ele>464</ele>
        <time>2007-04-09T00:00:00Z</time>
      </trkpt>
      <trkpt lat="47.14016" lon="6.15936">
        <ele>463</ele>
        <time>2007-04-09T00:00:00Z</time>
      </trkpt>
      <trkpt lat="47.14053" lon="6.16064">
        <ele>472</ele>
        <time>2007-04-09T00:00:00Z</time>
      </trkpt>
      <trkpt lat="47.14183" lon="6.16218">
        <ele>479</ele>
        <time>2007-04-09T00:00:00Z</time>
      </trkpt>
      <trkpt lat="47.14159" lon="6.16245">
        <ele>484</ele>
        <time>2007-04-09T00:00:00Z</time>
      </trkpt>
      <trkpt lat="47.14095" lon="6.16229">
        <ele>489</ele>
        <time>2007-04-09T00:00:00Z</time>
      </trkpt>
      <trkpt lat="47.14028" lon="6.16135">
        <ele>480</ele>
        <time>2007-04-09T00:00:00Z</time>
      </trkpt>
      <trkpt lat="47.13998" lon="6.16086">
        <ele>474</ele>
        <time>2007-04-09T00:00:00Z</time>
      </trkpt>
      <trkpt lat="47.1399" lon="6.16191">
        <ele>464</ele>
        <time>2007-04-09T00:00:00Z</time>
      </trkpt>
      <trkpt lat="47.13939" lon="6.16082">
        <ele>442</ele>
        <time>2007-04-09T00:00:00Z</time>
      </trkpt>
      <trkpt lat="47.1391" lon="6.15996">
        <ele>431</ele>
        <time>2007-04-09T00:00:00Z</time>
      </trkpt>
      <trkpt lat="47.13882" lon="6.16001">
        <ele>417</ele>
        <time>2007-04-09T00:00:00Z</time>
      </trkpt>
      <trkpt lat="47.13913" lon="6.1606">
        <ele>425</ele>
        <time>2007-04-09T00:00:00Z</time>
      </trkpt>
      <trkpt lat="47.13927" lon="6.16193">
        <ele>423</ele>
        <time>2007-04-09T00:00:00Z</time>
      </trkpt>
      <trkpt lat="47.13917" lon="6.16199">
        <ele>417</ele>
        <time>2007-04-09T00:00:00Z</time>
      </trkpt>
      <trkpt lat="47.13882" lon="6.16062">
        <ele>407</ele>
        <time>2007-04-09T00:00:00Z</time>
      </trkpt>
      <trkpt lat="47.13829" lon="6.16002">
        <ele>394</ele>
        <time>2007-04-09T00:00:00Z</time>
      </trkpt>
      <trkpt lat="47.13769" lon="6.15918">
        <ele>385</ele>
        <time>2007-04-09T00:00:00Z</time>
      </trkpt>
      <trkpt lat="47.13756" lon="6.15772">
        <ele>387</ele>
        <time>2007-04-09T00:00:00Z</time>
      </trkpt>
      <trkpt lat="47.13726" lon="6.1573">
        <ele>385</ele>
        <time>2007-04-09T00:00:00Z</time>
      </trkpt>
      <trkpt lat="47.13674" lon="6.15542">
        <ele>384</ele>
        <time>2007-04-09T00:00:00Z</time>
      </trkpt>
      <trkpt lat="47.13625" lon="6.1538">
        <ele>375</ele>
        <time>2007-04-09T00:00:00Z</time>
      </trkpt>
      <trkpt lat="47.13557" lon="6.15243">
        <ele>372</ele>
        <time>2007-04-09T00:00:00Z</time>
      </trkpt>
      <trkpt lat="47.13481" lon="6.15224">
        <ele>369</ele>
        <time>2007-04-09T00:00:00Z</time>
      </trkpt>
      <trkpt lat="47.13421" lon="6.15273">
        <ele>367</ele>
        <time>2007-04-09T00:00:00Z</time>
      </trkpt>
      <trkpt lat="47.13378" lon="6.15369">
        <ele>366</ele>
        <time>2007-04-09T00:00:00Z</time>
      </trkpt>
      <trkpt lat="47.13313" lon="6.15542">
        <ele>365</ele>
        <time>2007-04-09T00:00:00Z</time>
      </trkpt>
      <trkpt lat="47.13288" lon="6.15626">
        <ele>364</ele>
        <time>2007-04-09T00:00:00Z</time>
      </trkpt>
      <trkpt lat="47.13199" lon="6.15745">
        <ele>365</ele>
        <time>2007-04-09T00:00:00Z</time>
      </trkpt>
      <trkpt lat="47.13135" lon="6.16038">
        <ele>366</ele>
        <time>2007-04-09T00:00:00Z</time>
      </trkpt>
      <trkpt lat="47.13072" lon="6.16152">
        <ele>367</ele>
        <time>2007-04-09T00:00:00Z</time>
      </trkpt>
      <trkpt lat="47.13079" lon="6.16219">
        <ele>366</ele>
        <time>2007-04-09T00:00:00Z</time>
      </trkpt>
      <trkpt lat="47.13022" lon="6.16452">
        <ele>372</ele>
        <time>2007-04-09T00:00:00Z</time>
      </trkpt>
      <trkpt lat="47.12963" lon="6.16454">
        <ele>366</ele>
        <time>2007-04-09T00:00:00Z</time>
      </trkpt>
      <trkpt lat="47.12911" lon="6.16662">
        <ele>367</ele>
        <time>2007-04-09T00:00:00Z</time>
      </trkpt>
      <trkpt lat="47.12869" lon="6.16844">
        <ele>366</ele>
        <time>2007-04-09T00:00:00Z</time>
      </trkpt>
      <trkpt lat="47.12847" lon="6.16974">
        <ele>367</ele>
        <time>2007-04-09T00:00:00Z</time>
      </trkpt>
      <trkpt lat="47.12855" lon="6.17126">
        <ele>369</ele>
        <time>2007-04-09T00:00:00Z</time>
      </trkpt>
      <trkpt lat="47.12846" lon="6.17278">
        <ele>370</ele>
        <time>2007-04-09T00:00:00Z</time>
      </trkpt>
      <trkpt lat="47.12899" lon="6.17446">
        <ele>373</ele>
        <time>2007-04-09T00:00:00Z</time>
      </trkpt>
      <trkpt lat="47.12861" lon="6.1751">
        <ele>368</ele>
        <time>2007-04-09T00:00:00Z</time>
      </trkpt>
      <trkpt lat="47.12881" lon="6.17577">
        <ele>369</ele>
        <time>2007-04-09T00:00:00Z</time>
      </trkpt>
      <trkpt lat="47.1289" lon="6.1771">
        <ele>377</ele>
        <time>2007-04-09T00:00:00Z</time>
      </trkpt>
      <trkpt lat="47.12935" lon="6.17838">
        <ele>400</ele>
        <time>2007-04-09T00:00:00Z</time>
      </trkpt>
      <trkpt lat="47.13007" lon="6.17969">
        <ele>422</ele>
        <time>2007-04-09T00:00:00Z</time>
      </trkpt>
      <trkpt lat="47.13083" lon="6.18126">
        <ele>455</ele>
        <time>2007-04-09T00:00:00Z</time>
      </trkpt>
      <trkpt lat="47.1321" lon="6.18254">
        <ele>444</ele>
        <time>2007-04-09T00:00:00Z</time>
      </trkpt>
      <trkpt lat="47.13279" lon="6.18491">
        <ele>470</ele>
        <time>2007-04-09T00:00:00Z</time>
      </trkpt>
      <trkpt lat="47.13305" lon="6.18624">
        <ele>476</ele>
        <time>2007-04-09T00:00:00Z</time>
      </trkpt>
      <trkpt lat="47.13244" lon="6.1856">
        <ele>502</ele>
        <time>2007-04-09T00:00:00Z</time>
      </trkpt>
      <trkpt lat="47.13173" lon="6.18457">
        <ele>522</ele>
        <time>2007-04-09T00:00:00Z</time>
      </trkpt>
      <trkpt lat="47.13106" lon="6.18326">
        <ele>524</ele>
        <time>2007-04-09T00:00:00Z</time>
      </trkpt>
      <trkpt lat="47.12999" lon="6.18226">
        <ele>536</ele>
        <time>2007-04-09T00:00:00Z</time>
      </trkpt>
      <trkpt lat="47.12962" lon="6.18223">
        <ele>541</ele>
        <time>2007-04-09T00:00:00Z</time>
      </trkpt>
      <trkpt lat="47.1292" lon="6.18174">
        <ele>542</ele>
        <time>2007-04-09T00:00:00Z</time>
      </trkpt>
      <trkpt lat="47.12863" lon="6.18217">
        <ele>537</ele>
        <time>2007-04-09T00:00:00Z</time>
      </trkpt>
      <trkpt lat="47.1288" lon="6.18303">
        <ele>535</ele>
        <time>2007-04-09T00:00:00Z</time>
      </trkpt>
      <trkpt lat="47.12862" lon="6.18435">
        <ele>534</ele>
        <time>2007-04-09T00:00:00Z</time>
      </trkpt>
      <trkpt lat="47.12812" lon="6.18507">
        <ele>540</ele>
        <time>2007-04-09T00:00:00Z</time>
      </trkpt>
      <trkpt lat="47.12929" lon="6.18577">
        <ele>541</ele>
        <time>2007-04-09T00:00:00Z</time>
      </trkpt>
      <trkpt lat="47.12952" lon="6.18671">
        <ele>538</ele>
        <time>2007-04-09T00:00:00Z</time>
      </trkpt>
      <trkpt lat="47.13015" lon="6.18807">
        <ele>534</ele>
        <time>2007-04-09T00:00:00Z</time>
      </trkpt>
      <trkpt lat="47.12995" lon="6.18897">
        <ele>537</ele>
        <time>2007-04-09T00:00:00Z</time>
      </trkpt>
      <trkpt lat="47.12997" lon="6.18964">
        <ele>532</ele>
        <time>2007-04-09T00:00:00Z</time>
      </trkpt>
      <trkpt lat="47.12973" lon="6.19024">
        <ele>526</ele>
        <time>2007-04-09T00:00:00Z</time>
      </trkpt>
      <trkpt lat="47.13052" lon="6.18929">
        <ele>525</ele>
        <time>2007-04-09T00:00:00Z</time>
      </trkpt>
      <trkpt lat="47.13082" lon="6.18957">
        <ele>520</ele>
        <time>2007-04-09T00:00:00Z</time>
      </trkpt>
      <trkpt lat="47.1308" lon="6.19162">
        <ele>522</ele>
        <time>2007-04-09T00:00:00Z</time>
      </trkpt>
      <trkpt lat="47.13126" lon="6.19261">
        <ele>540</ele>
        <time>2007-04-09T00:00:00Z</time>
      </trkpt>
      <trkpt lat="47.13043" lon="6.19278">
        <ele>524</ele>
        <time>1969-12-31T00:00:00Z</time>
      </trkpt>
      <trkpt lat="47.13001" lon="6.1938">
        <ele>526</ele>
        <time>2007-04-09T00:00:00Z</time>
      </trkpt>
      <trkpt lat="47.12919" lon="6.19414">
        <ele>532</ele>
        <time>2007-04-09T00:00:00Z</time>
      </trkpt>
      <trkpt lat="47.12812" lon="6.19492">
        <ele>532</ele>
        <time>2007-04-09T00:00:00Z</time>
      </trkpt>
      <trkpt lat="47.1284" lon="6.19593">
        <ele>553</ele>
        <time>2007-04-09T00:00:00Z</time>
      </trkpt>
      <trkpt lat="47.12798" lon="6.19643">
        <ele>548</ele>
        <time>2007-04-09T00:00:00Z</time>
      </trkpt>
      <trkpt lat="47.12831" lon="6.1987">
        <ele>559</ele>
        <time>2007-04-09T00:00:00Z</time>
      </trkpt>
      <trkpt lat="47.12832" lon="6.19995">
        <ele>562</ele>
        <time>2007-04-09T00:00:00Z</time>
      </trkpt>
      <trkpt lat="47.12778" lon="6.2011">
        <ele>564</ele>
        <time>2007-04-09T00:00:00Z</time>
      </trkpt>
      <trkpt lat="47.12715" lon="6.20086">
        <ele>563</ele>
        <time>2007-04-09T00:00:00Z</time>
      </trkpt>
      <trkpt lat="47.12659" lon="6.20035">
        <ele>568</ele>
        <time>2007-04-09T00:00:00Z</time>
      </trkpt>
      <trkpt lat="47.12527" lon="6.20072">
        <ele>574</ele>
        <time>2007-04-09T00:00:00Z</time>
      </trkpt>
      <trkpt lat="47.12495" lon="6.20136">
        <ele>576</ele>
        <time>1969-12-31T00:00:00Z</time>
      </trkpt>
      <trkpt lat="47.12446" lon="6.2016">
        <ele>579</ele>
        <time>2007-04-09T00:00:00Z</time>
      </trkpt>
      <trkpt lat="47.12387" lon="6.20088">
        <ele>577</ele>
        <time>2007-04-09T00:00:00Z</time>
      </trkpt>
      <trkpt lat="47.12337" lon="6.20111">
        <ele>577</ele>
        <time>2007-04-09T00:00:00Z</time>
      </trkpt>
      <trkpt lat="47.12242" lon="6.20076">
        <ele>575</ele>
        <time>2007-04-09T00:00:00Z</time>
      </trkpt>
      <trkpt lat="47.12148" lon="6.19959">
        <ele>574</ele>
        <time>2007-04-09T00:00:00Z</time>
      </trkpt>
      <trkpt lat="47.12013" lon="6.19962">
        <ele>580</ele>
        <time>2007-04-09T00:00:00Z</time>
      </trkpt>
      <trkpt lat="47.11863" lon="6.19859">
        <ele>588</ele>
        <time>2007-04-09T00:00:00Z</time>
      </trkpt>
      <trkpt lat="47.11822" lon="6.19738">
        <ele>587</ele>
        <time>2007-04-09T00:00:00Z</time>
      </trkpt>
      <trkpt lat="47.11718" lon="6.1958">
        <ele>591</ele>
        <time>2007-04-09T00:00:00Z</time>
      </trkpt>
      <trkpt lat="47.11695" lon="6.19451">
        <ele>592</ele>
        <time>2007-04-09T00:00:00Z</time>
      </trkpt>
      <trkpt lat="47.11525" lon="6.19098">
        <ele>595</ele>
        <time>2007-04-09T00:00:00Z</time>
      </trkpt>
      <trkpt lat="47.11522" lon="6.19172">
        <ele>593</ele>
        <time>2007-04-09T00:00:00Z</time>
      </trkpt>
      <trkpt lat="47.1151" lon="6.19158">
        <ele>592</ele>
        <time>2007-04-09T00:00:00Z</time>
      </trkpt>
      <trkpt lat="47.11489" lon="6.19031">
        <ele>589</ele>
        <time>2007-04-09T00:00:00Z</time>
      </trkpt>
      <trkpt lat="47.11425" lon="6.1895">
        <ele>586</ele>
        <time>2007-04-09T00:00:00Z</time>
      </trkpt>
      <trkpt lat="47.11383" lon="6.18891">
        <ele>586</ele>
        <time>2007-04-09T00:00:00Z</time>
      </trkpt>
      <trkpt lat="47.11337" lon="6.18766">
        <ele>584</ele>
        <time>2007-04-09T00:00:00Z</time>
      </trkpt>
      <trkpt lat="47.11272" lon="6.1857">
        <ele>583</ele>
        <time>2007-04-09T00:00:00Z</time>
      </trkpt>
      <trkpt lat="47.11244" lon="6.18462">
        <ele>589</ele>
        <time>2007-04-09T00:00:00Z</time>
      </trkpt>
      <trkpt lat="47.11227" lon="6.18408">
        <ele>592</ele>
        <time>2007-04-09T00:00:00Z</time>
      </trkpt>
      <trkpt lat="47.11222" lon="6.18316">
        <ele>600</ele>
        <time>2007-04-09T00:00:00Z</time>
      </trkpt>
      <trkpt lat="47.11268" lon="6.18279">
        <ele>601</ele>
        <time>2007-04-09T00:00:00Z</time>
      </trkpt>
      <trkpt lat="47.11295" lon="6.18275">
        <ele>602</ele>
        <time>2007-04-09T00:00:00Z</time>
      </trkpt>
      <trkpt lat="47.11292" lon="6.18215">
        <ele>601</ele>
        <time>2007-04-09T00:00:00Z</time>
      </trkpt>
      <trkpt lat="47.11259" lon="6.1814">
        <ele>600</ele>
        <time>2007-04-09T00:00:00Z</time>
      </trkpt>
      <trkpt lat="47.11179" lon="6.18115">
        <ele>599</ele>
        <time>2007-04-09T00:00:00Z</time>
      </trkpt>
      <trkpt lat="47.11082" lon="6.18042">
        <ele>595</ele>
        <time>2007-04-09T00:00:00Z</time>
      </trkpt>
      <trkpt lat="47.11019" lon="6.17912">
        <ele>590</ele>
        <time>2007-04-09T00:00:00Z</time>
      </trkpt>
      <trkpt lat="47.10934" lon="6.17767">
        <ele>587</ele>
        <time>2007-04-09T00:00:00Z</time>
      </trkpt>
      <trkpt lat="47.10864" lon="6.17571">
        <ele>579</ele>
        <time>2007-04-09T00:00:00Z</time>
      </trkpt>
      <trkpt lat="47.10862" lon="6.17479">
        <ele>580</ele>
        <time>2007-04-09T00:00:00Z</time>
      </trkpt>
      <trkpt lat="47.10893" lon="6.17191">
        <ele>570</ele>
        <time>2007-04-09T00:00:00Z</time>
      </trkpt>
      <trkpt lat="47.10891" lon="6.17019">
        <ele>550</ele>
        <time>2007-04-09T00:00:00Z</time>
      </trkpt>
      <trkpt lat="47.10846" lon="6.16884">
        <ele>541</ele>
        <time>2007-04-09T00:00:00Z</time>
      </trkpt>
      <trkpt lat="47.10789" lon="6.16827">
        <ele>534</ele>
        <time>2007-04-09T00:00:00Z</time>
      </trkpt>
      <trkpt lat="47.10822" lon="6.16671">
        <ele>517</ele>
        <time>2007-04-09T00:00:00Z</time>
      </trkpt>
      <trkpt lat="47.10726" lon="6.16691">
        <ele>511</ele>
        <time>2007-04-09T00:00:00Z</time>
      </trkpt>
      <trkpt lat="47.10669" lon="6.16792">
        <ele>506</ele>
        <time>2007-04-09T00:00:00Z</time>
      </trkpt>
      <trkpt lat="47.10608" lon="6.16999">
        <ele>512</ele>
        <time>2007-04-09T00:00:00Z</time>
      </trkpt>
      <trkpt lat="47.10504" lon="6.17268">
        <ele>516</ele>
        <time>2007-04-09T00:00:00Z</time>
      </trkpt>
      <trkpt lat="47.10422" lon="6.17434">
        <ele>521</ele>
        <time>2007-04-09T00:00:00Z</time>
      </trkpt>
      <trkpt lat="47.10413" lon="6.17578">
        <ele>523</ele>
        <time>2007-04-09T00:00:00Z</time>
      </trkpt>
      <trkpt lat="47.10352" lon="6.1766">
        <ele>518</ele>
        <time>2007-04-09T00:00:00Z</time>
      </trkpt>
      <trkpt lat="47.10291" lon="6.17654">
        <ele>513</ele>
        <time>2007-04-09T00:00:00Z</time>
      </trkpt>
      <trkpt lat="47.1023" lon="6.17611">
        <ele>513</ele>
        <time>2007-04-09T00:00:00Z</time>
      </trkpt>
      <trkpt lat="47.10189" lon="6.17595">
        <ele>513</ele>
        <time>2007-04-09T00:00:00Z</time>
      </trkpt>
      <trkpt lat="47.1012" lon="6.1767">
        <ele>495</ele>
        <time>2007-04-09T00:00:00Z</time>
      </trkpt>
      <trkpt lat="47.09995" lon="6.17618">
        <ele>483</ele>
        <time>2007-04-09T00:00:00Z</time>
      </trkpt>
      <trkpt lat="47.09916" lon="6.1749">
        <ele>489</ele>
        <time>2007-04-09T00:00:00Z</time>
      </trkpt>
      <trkpt lat="47.09901" lon="6.1741">
        <ele>482</ele>
        <time>2007-04-09T00:00:00Z</time>
      </trkpt>
      <trkpt lat="47.09961" lon="6.17286">
        <ele>489</ele>
        <time>2007-04-09T00:00:00Z</time>
      </trkpt>
      <trkpt lat="47.09999" lon="6.17204">
        <ele>480</ele>
        <time>2007-04-09T00:00:00Z</time>
      </trkpt>
      <trkpt lat="47.09995" lon="6.17159">
        <ele>460</ele>
        <time>2007-04-09T00:00:00Z</time>
      </trkpt>
      <trkpt lat="47.1004" lon="6.17196">
        <ele>484</ele>
        <time>2007-04-09T00:00:00Z</time>
      </trkpt>
      <trkpt lat="47.1012" lon="6.17229">
        <ele>486</ele>
        <time>2007-04-09T00:00:00Z</time>
      </trkpt>
      <trkpt lat="47.10184" lon="6.17278">
        <ele>486</ele>
        <time>2007-04-09T00:00:00Z</time>
      </trkpt>
      <trkpt lat="47.10231" lon="6.17361">
        <ele>489</ele>
        <time>2007-04-09T00:00:00Z</time>
      </trkpt>
      <trkpt lat="47.10289" lon="6.17446">
        <ele>496</ele>
        <time>2007-04-09T00:00:00Z</time>
      </trkpt>
      <trkpt lat="47.10286" lon="6.17338">
        <ele>487</ele>
        <time>2007-04-09T00:00:00Z</time>
      </trkpt>
      <trkpt lat="47.10298" lon="6.17254">
        <ele>479</ele>
        <time>2007-04-09T00:00:00Z</time>
      </trkpt>
      <trkpt lat="47.10355" lon="6.17146">
        <ele>472</ele>
        <time>2007-04-09T00:00:00Z</time>
      </trkpt>
      <trkpt lat="47.10425" lon="6.17098">
        <ele>458</ele>
        <time>2007-04-09T00:00:00Z</time>
      </trkpt>
      <trkpt lat="47.10466" lon="6.17081">
        <ele>467</ele>
        <time>2007-04-09T00:00:00Z</time>
      </trkpt>
      <trkpt lat="47.10456" lon="6.16968">
        <ele>447</ele>
        <time>2007-04-09T00:00:00Z</time>
      </trkpt>
      <trkpt lat="47.10449" lon="6.16854">
        <ele>426</ele>
        <time>2007-04-09T00:00:00Z</time>
      </trkpt>
      <trkpt lat="47.10475" lon="6.16653">
        <ele>397</ele>
        <time>2007-04-09T00:00:00Z</time>
      </trkpt>
      <trkpt lat="47.10491" lon="6.16443">
        <ele>368</ele>
        <time>2007-04-09T00:00:00Z</time>
      </trkpt>
      <trkpt lat="47.10492" lon="6.16304">
        <ele>354</ele>
        <time>2007-04-09T00:00:00Z</time>
      </trkpt>
      <trkpt lat="47.10479" lon="6.16152">
        <ele>342</ele>
        <time>2007-04-09T00:00:00Z</time>
      </trkpt>
      <trkpt lat="47.10514" lon="6.16029">
        <ele>342</ele>
        <time>2007-04-09T00:00:00Z</time>
      </trkpt>
      <trkpt lat="47.10546" lon="6.15873">
        <ele>334</ele>
        <time>2007-04-09T00:00:00Z</time>
      </trkpt>
      <trkpt lat="47.10501" lon="6.15876">
        <ele>332</ele>
        <time>2007-04-09T00:00:00Z</time>
      </trkpt>
      <trkpt lat="47.10468" lon="6.15801">
        <ele>331</ele>
        <time>2007-04-09T00:00:00Z</time>
      </trkpt>
      <trkpt lat="47.10402" lon="6.15737">
        <ele>331</ele>
        <time>2007-04-09T00:00:00Z</time>
      </trkpt>
      <trkpt lat="47.10433" lon="6.15634">
        <ele>341</ele>
        <time>2007-04-09T00:00:00Z</time>
      </trkpt>
      <trkpt lat="47.10443" lon="6.15463">
        <ele>342</ele>
        <time>2007-04-09T00:00:00Z</time>
      </trkpt>
      <trkpt lat="47.10433" lon="6.15364">
        <ele>342</ele>
        <time>2007-04-09T00:00:00Z</time>
      </trkpt>
      <trkpt lat="47.10318" lon="6.15296">
        <ele>331</ele>
        <time>2007-04-09T00:00:00Z</time>
      </trkpt>
      <trkpt lat="47.10399" lon="6.1515">
        <ele>329</ele>
        <time>2007-04-09T00:00:00Z</time>
      </trkpt>
      <trkpt lat="47.10429" lon="6.1506">
        <ele>329</ele>
        <time>2007-04-09T00:00:00Z</time>
      </trkpt>
      <trkpt lat="47.10474" lon="6.14938">
        <ele>329</ele>
        <time>2007-04-09T00:00:00Z</time>
      </trkpt>
      <trkpt lat="47.1054" lon="6.14844">
        <ele>328</ele>
        <time>2007-04-09T00:00:00Z</time>
      </trkpt>
      <trkpt lat="47.10645" lon="6.14673">
        <ele>328</ele>
        <time>2007-04-09T00:00:00Z</time>
      </trkpt>
    </trkseg>
  </trk>
</gpx>